WetterOnline ( http://www.wetteronline.de )

Wetter aktuell Straubing

Aktuelles Wetter: Straubing (360m)

6-stündlich | Neueste Meldungen
Ortszeit Temperatur Wetter
Mo, 25.09. 8:00 7.2° C bedeckt
Mo, 25.09. 2:00 5.5° C wolkig
So, 24.09. 20:00 14.3° C bedeckt
So, 24.09. 14:00 18.0° C wolkig
Ortszeit Temperatur Wetter
Mo, 25.09. 8:00 7.2° C bedeckt
Mo, 25.09. 7:30 6.4° C bedeckt
Mo, 25.09. 7:00 7.0° C bedeckt
Mo, 25.09. 6:30 6.0° C bedeckt
Mo, 25.09. 6:00 5.7° C bedeckt
Mo, 25.09. 5:30 6.1° C bedeckt
Ortszeit Relative Feuchte Sichtweite
Mo, 25.09. 8:00 95% 12 km
Mo, 25.09. 2:00 94% 19 km
So, 24.09. 20:00 66% 70 km
So, 24.09. 14:00 49% 35 km
Ortszeit Relative Feuchte Sichtweite
Mo, 25.09. 8:00 95% 12 km
Mo, 25.09. 7:30 97% 10 km
Mo, 25.09. 7:00 97% 11 km
Mo, 25.09. 6:30 96% 14 km
Mo, 25.09. 6:00 95% 14 km
Mo, 25.09. 5:30 96% 16 km
Ortszeit Niederschlagsmenge Niederschlagsart
Mo, 25.09. 8:00 0.0 l/m2 in 12 Std. -
Mo, 25.09. 2:00 0.0 l/m2 in 6 Std. -
So, 24.09. 20:00 0.0 l/m2 in 12 Std. -
So, 24.09. 14:00 0.0 l/m2 in 6 Std. -
Ortszeit Niederschlagsmenge Niederschlagsart
Mo, 25.09. 8:00 0.0 l/m2 in 1 Std. -
Mo, 25.09. 7:30 keine Meldung -
Mo, 25.09. 7:00 0.0 l/m2 in 1 Std. -
Mo, 25.09. 6:30 keine Meldung -
Mo, 25.09. 6:00 0.0 l/m2 in 1 Std. -
Mo, 25.09. 5:30 keine Meldung -
Ortszeit Stärke Spitze Richtung
km/h Bft. km/h Grad Sektor
Mo, 25.09. 8:00 0 0 7 - -
Mo, 25.09. 2:00 4 1 11 220° SW
So, 24.09. 20:00 7 2 22 340° N
So, 24.09. 14:00 6 1 19 350° N
Ortszeit Stärke Spitze Richtung
km/h Bft. km/h Grad Sektor
Mo, 25.09. 8:00 0 0 4 - -
Mo, 25.09. 7:30 0 0 4 - -
Mo, 25.09. 7:00 4 1 7 270° W
Mo, 25.09. 6:30 6 1 7 220° SW
Mo, 25.09. 6:00 4 1 7 250° W
Mo, 25.09. 5:30 4 1 7 230° SW
Ortszeit Untergrenze Bedeckung Gattung
total tief tief mittel hoch
Mo, 25.09. 8:00 2700 m 8/8 8/8 - - -
Mo, 25.09. 2:00 7800 m 8/8 0/8 - - -
So, 24.09. 20:00 6900 m 8/8 8/8 - - -
So, 24.09. 14:00 2400 m 6/8 2/8 - - -
Ortszeit Bedeckungsgrad in Achtel und Wolkenuntergrenze
Mo, 25.09. 8:00 8(2700m)
Mo, 25.09. 7:30 8(3000m)
Mo, 25.09. 7:00 8(2700m)
Mo, 25.09. 6:30 8(3000m)
Mo, 25.09. 6:00 8(3000m)
Mo, 25.09. 5:30 8(3000m)
Ortszeit Luftdruck NN (hPa) Tendenz (hPa in 3 Std.)
Mo, 25.09. 8:00 1022 + 0,4
Mo, 25.09. 2:00 1023 - 0,4
So, 24.09. 20:00 1021 + 0,5
So, 24.09. 14:00 1020 - 0,6
Ortszeit Luftdruck NN (hPa) Tendenz (hPa in 3 Std.)
Mo, 25.09. 8:00 1022 + 0,4
Mo, 25.09. 7:30 1022 + 0,1
Mo, 25.09. 7:00 1022 - 0,4
Mo, 25.09. 6:30 1022 - 0,6
Mo, 25.09. 6:00 1022 - 0,6
Mo, 25.09. 5:30 1022 - 0,6
Ortszeit Schneehöhe (cm)
Mo, 25.09. 8:00 -
Mo, 25.09. 2:00 -
So, 24.09. 20:00 -
So, 24.09. 14:00 -
Ortszeit Schneehöhe (cm)
Mo, 25.09. 8:00 -
Mo, 25.09. 7:30 -
Mo, 25.09. 7:00 -
Mo, 25.09. 6:30 -
Mo, 25.09. 6:00 -
Mo, 25.09. 5:30 -
Link zu dieser Seite / Seite empfehlen

Das Wetter in ...